Diamond Valley Lake 2016 - 5k Results


results@negativesplitrunning.com      (Hover over the blue line to search)
Place First Last Time Age Sex Sex Place Age Group Age Place Pace Bib Status
1MoisesMontiel0:19:4112M110-1316:20270
2EricOgle0:19:4828M220-2916:23277
3JohanOhlsson0:20:4249M340-4916:40278
4GregJohnston0:22:1451M450-5917:10250
5NataliaGarcia0:22:2717F117-1917:14140
6BenSproule0:22:4842M540-4927:21314
7AllisonClarke0:23:1838F230-3917:30229
8JulianBanuelos0:23:3012M610-1327:34345
9WilsonEguez0:24:0163M760-6917:44238
10ErniePust0:24:1044M840-4937:47293
11NoahEngel0:24:2710M910-1337:53127
12UlrikeGinter0:24:3046F340-4917:54245
13MichelleAllcock0:24:3136F430-3927:54209
14BobbyRamos0:24:3654M1050-5927:56185
15StevenPavlik0:25:1130M1130-3918:07181
16RobertSukkestad0:25:1364M1260-6928:082183
17MichelleCruz0:25:2444F540-4928:11230
18DerekDunckel0:25:4215M1314-1618:17235
19DavidBrown0:25:5049M1440-4948:20221
20AnthonyBurton0:26:1457M1550-5938:27223
21MaarjaSammel0:26:3033F630-3938:32301
22VeeravatTae0:26:5938M1630-3928:42343
23LindaSukkestad0:27:0258F750-5918:43316
24NicoleAllen0:27:0923F820-2918:45326
25RobertLasko0:27:2164M1760-6938:49259
26MikeOgle0:27:2568M1860-6948:50276
27SaichandraKalvakota0:27:2617M1917-1918:50337
28StevenSchlicht0:27:4251M2050-5948:56303
29RichardStephens0:27:4332M2130-3938:56196
30GavinBreckenridge0:27:4810M2210-1348:58109
31RachelBreckenridge0:27:4835F930-3948:58107
32JessicaHurst0:27:5139F1030-3958:59249
33RobertPavlik0:28:2150M2350-5959:08182
34Philip JohnDawson0:28:3463M2460-6959:12232
35DanielNavarro0:28:5431M2530-3949:19177
36BrandonSanchez0:28:5813M2610-1359:202148
37AlejandraMendoza0:29:0326F1120-2929:22344
38ChrisEngel0:29:0437M2730-3959:22130
39CharlesNguyen0:29:0918M2817-1929:24274
40IanWilliams0:29:1012M2910-1369:242179
41JenniferCox0:29:5216F1214-1619:382107
42JavierDominguez0:29:5429M3020-2929:38125
43JeffreyShamblin0:29:5752M3150-5969:39306
44OderaArene0:30:009M329-under19:40212
45JonathanLy0:30:0116M3314-1629:40356
46KandaceBrock0:30:0834F1330-3969:43220
47MelissaLamb0:30:2929F1420-2939:50256
48RaquelThompson0:30:3126F1520-2949:50318
49AliciaBurton0:30:4253F1650-5929:54222
50CaroleKendrick0:30:4942F1740-4939:56252
51MarkKrafft0:30:5147M3440-4959:57253
52GeorgiaBlunt0:31:0324F1820-29510:00219
53VictorLomeli0:31:1435M3530-39610:04263
54ErikaBegay0:31:1922F1920-29610:06216
55HumbertoSanchez0:31:2337M3630-39710:07191
56AaronYaung0:31:3336M3730-39810:10207
57ApoorvaKoka0:31:3612F2010-13110:112233
58IsaiahStalte0:31:589M389-under210:182199
59NancyBanda0:31:5964F2160-69110:192155
60MattOsborn0:32:0031M3930-39910:19283
61ElijahSoto0:32:0723M4020-29310:21312
62CadenceMartinez0:32:368F229-under110:30324
63DovIsraeli0:32:5864M4160-69610:38330
64JasmineBanuelos0:32:5813F2310-13210:38391
65ElenorGoar0:32:5857F2450-59310:38246
66BarabraShamblin0:33:0146F2540-49410:39305
67SindyRath0:33:0334F2630-39710:39187
68AlanaTroidl0:33:0627F2720-29710:40319
69DavidPhillips0:33:0848M4240-49610:41286
70JessicaSinnott0:33:1526F2820-29810:43309
71KristenAhrens0:33:2126F2920-29910:45101
72KenJones0:33:2455M4350-59710:462132
73MayelaBanuelos0:33:2817F3017-19210:47392
74EthanMontez0:33:388M449-under310:50269
75MariaFlores0:33:4223F3120-291010:52339
76KimiArabe0:33:449F329-under210:522113
77VictorioArabe0:33:4542M4540-49710:532114
78MichaelMrgich0:33:5823M4620-29410:572147
79SandyCifuentes0:34:1236F3330-39811:01118
80SandraGonzales0:34:1541F3440-49511:02369
81JosephineGomez0:34:3025F3520-291111:07247
82JeffRichards0:34:3551M4750-59811:092108
83TamaraLoera0:34:4543F3640-49611:12262
84LandinBreckenridge0:34:487M489-under411:13108
85AnthonyRea0:34:4831M4930-391011:132102
86JudyMartinez0:34:5043F3740-49711:14325
87GeorginaMartin0:34:5138F3830-39911:14383
88GiseleBurton0:35:2912F3910-13311:26224
89NathalieZepek0:35:3145F4040-49811:27341
90JodiDunckel0:35:4343F4140-49911:31236
91AmberNiklaus0:35:4926F4220-291211:33275
92AmandeepKaur0:35:5327F4320-291311:34151
93EmilioGonzales0:36:1242M5040-49811:40372
94VictoriaCifuentes0:36:1515F4414-16211:41120
95RajuGuttula0:36:3950M5150-59911:492204
96TrevorMitchell0:36:4313N110-13111:50170
97BobbieSoto0:37:0019F4517-19311:56313
98LindaOlson0:37:0558F4650-59411:57281
99JohnOlson0:37:1758M5250-591012:01280
100Jasmine SelenaFlores0:37:2817F4717-19412:05241
101IrmaConchas0:37:3631F4830-391012:07381
102SaiYalamuri0:37:3816M5314-16312:08378
103SteveChristie0:37:4067M5460-69712:09336
104SirenaCifuentes0:37:4215F4914-16312:09117
105BeccieWilliams0:37:4942F5040-491012:11322
106Maria TSGarcia0:37:5252F5150-59512:12244
107JohnSchroder0:38:0473M5570-79112:16304
108JessicaConchas0:38:0511F5210-13412:17380
109VanessaKumar0:38:4412F5310-13512:29350
110IsaacStalte0:38:488M569-under512:302238
111ScottStalte0:38:4845M5740-49912:30342
112FayGautheir0:38:5652F5450-59612:332116
113ChristineReed0:39:2523F5520-291412:42361
114JackieMorovick0:39:3348F5640-491112:45271
115MarianneGunter-Tan0:39:3537F5730-391112:46145
116DanniePerry0:39:3716F5814-16412:46396
117Clarissa FiFiguerou0:39:4412F5910-13612:49134
118MadisonKrafft0:40:0113F6010-13712:54254
119JenniferSpurgeon0:40:0340F6140-491212:55315
120CinthiaMeraz0:40:0532F6230-391212:55168
121DeniseDawson0:40:3962F6360-69213:06231
122AndrewFrauenpreis0:41:2216M5814-16413:20384
123BerenicePonce0:41:2433F6430-391313:21289
124CarlosPonce0:41:2531M5930-391113:21288
125MariaPerez0:41:2645F6540-491313:21285
126AnushaKoka0:41:2815F6614-16513:22153
127TamiEngel0:41:3336F6730-391413:24129
128PaulaBrueggemann0:41:3916F6814-16613:26370
129SaichurithaKalvakola0:42:0014F6914-16713:32338
130VidhyaKoka0:42:0047F7040-491413:32154
131DanKumar0:42:0045M6040-491013:32351
132JesseQuintero0:42:1945M6140-491113:39295
133DanielChadd0:42:2244M6240-491213:40227
134MaryChadd0:42:2439F7130-391513:40228
135DaveMcCullough0:42:3883M6380+113:45264
136JulianBarajas0:42:5021M6420-29513:49105
137NormaGonzale0:42:5128F7220-291513:49142
138KrishnaKoka0:43:0312M6510-13713:53155
139LauraRocha0:44:3113M6610-13814:21355
140JohnoMontez0:44:3310M6710-13914:22268
141EmilieGonzales0:44:5116F7314-16814:28368
142RoxaneJorbina-Lobaton0:45:0233F7430-391614:31150
143HermanCelaya0:45:1325M6820-29614:35225
144VeronicaCelaya0:45:1425F7520-291614:35226
145MonicaArjas0:45:1746F7640-491514:36104
146LoranEbert0:45:4549F7740-491614:45367
147AlexMeyerhoff0:45:4950M6950-591114:46267
148ZuleyCauales0:45:5529F7820-291714:48114
149ShanthalUribe0:45:5737F7930-391714:49320
150JayannaBackens0:46:1116F8014-16914:53394
151TerresaWillison0:46:1452F8150-59714:54205
152JoseAlonzo0:46:2153M7050-591214:572150
153KathleemFranks0:46:2243F8240-491714:57243
154ClaydiaMayo0:46:4136F8330-391815:03164
155KulwinderChera0:46:4849F8440-491815:05115
156ClaudiaFiguerou0:47:0839F8530-391915:12133
157KathleenAguilar0:47:1645F8640-491915:14208
158LeticiaHernandez0:47:2936F8730-392015:19147
159ArabellPerez0:47:3126F8820-291815:19183
160AnnaCasturuita0:47:3537F8930-392115:2016
161JosanieFerris0:47:3632F9030-392215:2125
162SujathaUpadhyayula0:47:5956F9150-59815:28346
163SelleyMartin0:48:0156F9250-59915:29329
164MargaritaGonzalez0:48:1521F9320-291915:33382
165DeborahRamos0:48:1557F9450-591015:33296
166JacuelineTaylor0:48:1939F9530-392315:35317
167AngelaHolt0:48:2046F9640-492015:35333
168FreddyBanuelos0:48:3037M7130-391215:38395
169EugeneGuidote0:48:5024M7220-29715:45144
170CeleneFrias0:48:5121F9720-292015:45137
171MelissaAtchley0:48:5927F9820-292115:48213
172JeffreyMulcahy0:49:0039M7330-391315:48273
173LissetBiaez0:49:0636F9930-392415:50217
174SylviaMartinez0:49:0834F10030-392515:50162
175AnaVelasco0:49:0842F10140-492115:50203
176IleneEpley0:49:3141F10240-492215:58239
177GovindKoka0:49:3344M7440-491315:59152
178PhillipLobation0:50:2739M7530-391416:16157
179PaulMitchell0:50:2944M7640-491416:17171
180TiffanyMitchell0:50:2943F10340-492316:17172
181JyothiKrishman0:50:3145F10440-492416:17390
182AmanaHernandez0:51:0021F10520-292216:272156
183AnabelleGonzales0:51:4110F10610-13816:40373
184ChristopherGonzales0:51:5114M7714-16516:43371
185RubenValcarcel0:52:0545M7840-491516:48199
186JulissaFiguerou0:52:109F1079-under316:49136
187ZainabQasemi0:52:1715F10814-161016:51294
188DanaVillanueva0:52:1815F10914-161116:52321
189RadhakrishnaDeevi0:52:2139M7930-391516:532208
190VenkataKalvakota0:52:2743M8040-491616:55353
191RameshUpadhyayula0:52:4254M8150-591317:00349
192KaiwantSandhu0:52:4744F11040-492517:01193
193NinakumarKumar0:52:4844F11140-492617:01352
194RosaEstrella0:52:490F112NONE117:02131
195LauraMartinez0:52:5044F11340-492717:02163
196KevinRunyon0:53:0026M8220-29817:05334
197AmanolaBunyon0:53:0025F11420-292317:05332
198EvelynFelix0:53:1721F11520-292417:11132
199KarenRowden0:53:1950F11650-591117:11190
200AlexisOlive0:53:2122F11720-292517:122181
201AllieceDuckett0:53:2764F11860-69317:142227
202JacobZeigler0:53:3031M8330-391617:15400
203RajGujjula0:53:3446M8440-491717:162186
204TristanZeigler0:53:349M859-under617:16399
205BayapaDadem0:53:3538M8630-391717:17375
206SummerZeigler0:53:3632F11930-392617:17398
207MallikhrjunBonthu0:53:3646M8740-491817:17376
208VenkaiMallidi0:53:3837M8830-391817:18377
209JoannRoberts0:54:2159F12050-591217:31297
210DebbieDuran0:54:3241F12140-492817:35237
211NicoleBarnes0:54:5030F12230-392717:41215
212StanleyOlson0:55:0172M8970-79217:44279
213LauraBrillinger0:55:0155F12350-591317:44111
214NadyaEsparza0:55:158F1249-under417:49385
215JayleneSerafin0:55:168F1259-under517:49386
216MichaelDiaz0:55:2930M9030-391917:532145
217RebeccaZayas0:55:3532F12630-392817:55323
218BonnieMrgich0:55:3547F12740-492917:55360
219ChristinaPhillips0:55:5627F12820-292618:02287
220RaoTayi0:55:5869M9160-69818:032138
221VirginiaFiaseu0:56:0135F12930-392918:04240
222TyeishaSmith0:56:0127F13020-292718:04311
223JacqueineGarcia0:56:1332F13130-393018:082142
224ZachJump0:56:1442M9240-491918:08379
225SavannahChadd0:56:1720F13220-292818:09327
226ReinaNicochea0:56:4928F13320-292918:19331
227YanelliRangel0:56:517F1349-under618:20365
228MariaFelix0:56:5130F13530-393118:20364
229YazleneLeon0:56:537F1369-under718:20366
230AdrianaLopez0:57:0040F13740-493018:23159
231KellieVonsell0:57:0047F13840-493118:23204
232JenniferCruz0:57:1216F13914-161218:27359
233BriannaFair0:57:1417F14017-19518:27358
234SamPugsley0:57:2043M9340-492018:29291
235ChristinaPugsley0:57:2245F14140-493218:30292
236DesereeAlcaraz0:57:3926F14220-293018:35102
237CorineCarillo0:57:3929F14320-293118:35113
238RichardPerry0:58:2452M9450-591418:50393
239TeressaMaples0:58:2451F14450-591418:50160
240JessicaPirch0:58:2422F14520-293218:50184
241JacobHarmon0:58:3926M9520-29918:55357
242AndrewBatista0:58:3934M9630-392018:552161
243SrideviSarnasi0:58:5048F14640-493318:58348
244EdnaLebron1:00:0649F14740-493419:23261
245StevenLatino1:00:0935M9730-392119:24260
246NancieShaw1:00:1148F14840-493519:24307
247CarolynCoopes1:00:5553F14950-591519:39123
248MariaJohnston1:01:1441F15040-493619:45340
249MelanieReed1:02:0543F15140-493720:01362
250AustinSmith1:03:5316M9814-16620:36310
251AlishaFogerty1:04:1245F15240-493820:42242
252ShobhaKalvakota1:04:3841M9940-492120:50354
253ShyamalImmaneni1:04:3843F15340-493920:502158
254MarthaRodriguez1:05:0123F15420-293320:58299
255AngelicaOchoa1:05:0224F15520-293420:58374
256EdDay1:05:2660M10060-69921:06124
257DonaldJentes1:05:3574M10170-79321:09148
258JaniceTriple H1:05:3571F15670-79121:09198
259SandyMcknight1:05:5261F15760-69421:142149
260BobbyAllsop1:05:5272M10270-79421:14103
261HumbertoSanchez1:06:0513M10310-131021:19192
262DianaHernandez1:07:2530F15830-393221:44146
263NancyCarrillo1:07:2637F15930-393321:45363
264TeresaCisneros1:07:2637F16030-393421:45121
265MargaritaGarcia1:08:3365F16160-69522:06139
266JulieMoua1:08:3546F16240-494022:07174
267AmySawyer1:10:5538F16330-393522:529039
268TimothyMejia1:12:3913M10410-131123:26388
269JohnMoyeda1:12:3927M10520-291023:26175
270JenniferMoyeda1:12:4231F16430-393623:27176
271LenoreDejusus1:19:0059F16550-591625:29233
272JudyProvard1:19:0159F16650-591725:29290
273LauraMcKnight1:28:0655F16750-591828:25266
274MikeMcKnight1:28:0763M10660-691028:25265
CasaraSantana27F20-29335
SanchezBrandon14M14-16106DNS
GracieValcarcel14F14-16201DNS
PerlaLeopard45F40-49156DNS
GenieValcarcel11F10-13200DNS
StephanieLopez21F20-29158DNS
PrakashUpadhyayul58M50-59347
BrendaMartinez27F20-29161DNS
JoshlynBanuelos8M9-under387DNS
LoriOrona57F50-59282DNS
ShirleySpeir79F70-79195DNS
EllonBanuelos4F9-under389DNS
JeanLarsson55F50-59258DNS
NhanLamb43M40-49257DNS
LindaKrupa68F60-69255DNS
VandyMcKnight61F60-69165DNS
JulieanneValdez31F30-39202DNS
LynnOsborn24F20-29284DNS
BonnieMegich47F40-49166DNS
HildaPerez34F30-39328
EmilyBrillinger22F20-29110DNS
BereniceCandelaria36F30-39112DNS
RoseChristie50F50-59116DNS
JesseCifuentes19M17-19119DNS
SwedenRenteria38F30-39188DNS
ShirleyConner0FNONE122DNS
LoriScanlan56F50-59302DNS
DalasGoralski29F20-29143DNS
TomRothhaar73M70-79300
KimDurbin40F40-49126DNS
Cathy ChrystineRockdashil64F60-69298DNS
FabianFiguerou14M14-16135
SydneyYaung31F30-39206DNS
FredFrontino52M50-59138DNS
MarianneGauthier52F50-59141DNS
DomenicaGomez34F30-39248
SheldonSubith60M60-69197DNS
MattBillinger47M40-49218
TylerMeldrum25M20-29167DNS
ValeriaMoreno23F20-29173DNS
ChristineAllen49F40-49210DNS
FrancesDiaz57F50-59234DNS
PeterAmsdon35M30-39211DNS
Dr NancyPatel35F30-39179DNS
ShaliniPatel16F14-16178DNS
ToniAure35F30-39214
ErmaRamos60F60-69186DNS
JohnRogers61M60-69189DNS
ShrauanPatel15M14-16180DNS